Simultaneous Nadir Overpasses (SNOs) Predictions

Prediction of SNOs between LANDSAT-8 and METOP-B Satellite Orbit:

Table of predicted SNOs for the next 14.0 days since TLE Epoch: 9/17/2016
Index Date (LANDSAT-8) Time (LANDSAT-8) Lat,Lon (LANDSAT-8) SZA (LANDSAT-8 ) Date (METOP-B) Time (METOP-B) Lat,Lon (METOP-B) SZA (METOP-B ) Distance(km) Time Diff (sec)
1 09/19/2016 09:04:23 -81.07, -96.82 98.02 09/19/2016 09:03:24 -81.07, -96.78 98.04 0.57 59
2 09/19/2016 09:53:48 81.10, 71.27 82.07 09/19/2016 09:54:02 81.11, 71.46 82.09 3.31 14
3 09/22/2016 04:38:39 -81.06, -30.61 96.94 09/22/2016 04:37:49 -81.06, -30.75 96.98 2.33 50
4 09/22/2016 05:28:04 81.09, 137.44 83.14 09/22/2016 05:28:27 81.09, 137.49 83.16 1.08 23
5 09/25/2016 00:12:53 -81.09, 36.26 95.76 09/25/2016 00:12:11 -81.09, 36.38 95.77 1.96 42
6 09/25/2016 01:02:19 81.09,-156.06 84.26 09/25/2016 01:02:51 81.09,-156.13 84.27 1.16 32
7 09/27/2016 19:47:08 -81.07, 102.38 94.70 09/27/2016 19:46:35 -81.07, 102.36 94.71 0.58 33
8 09/27/2016 20:36:33 81.09, -89.61 85.38 09/27/2016 20:37:14 81.09, -89.77 85.38 2.78 41
9 09/30/2016 15:21:22 -81.09, 169.17 93.53 09/30/2016 15:20:58 -81.08, 169.07 93.56 2.04 24




NCC Satellite Simultaneous Nadir Overpasses (SNOs) Prediction Service
